FW8455 Weather Reports


time (UTC)temp
F
wind
direction
speed
knots
gust
knots
rain 1hr
in
rain 24hr
in
rain mn
in
humidity
%
barometer
mb
20260507145309 58 248 29.5 34.8 0.00 0.00 0.00 36 1008.6
20260507144759 58 203 21.7 35.6 0.00 0.00 0.00 37 1008.5
20260507144249 58 203 29.5 37.4 0.00 0.00 0.00 37 1008.6
20260507143739 58 203 19.1 37.4 0.00 0.00 0.00 37 1009.0
20260507142719 57 225 22.6 33.0 0.00 0.00 0.00 38 1008.5
20260507141658 56 225 24.3 33.0 0.00 0.00 0.00 41 1008.9
20260507141149 56 180 22.6 33.0 0.00 0.00 0.00 41 1008.8
20260507140648 55 203 20.0 26.1 0.00 0.00 0.00 44 1008.4
20260507140128 55 225 18.2 27.8 0.00 0.00 0.00 45 1008.8
20260507135622 54 203 18.2 29.5 0.00 0.00 0.00 46 1008.5
20260507135108 54 225 19.1 31.3 0.00 0.00 0.00 47 1008.8
20260507134558 54 203 15.6 31.3 0.00 0.00 0.00 48 1009.0
20260507134047 53 203 21.7 29.5 0.00 0.00 0.00 48 1009.0
20260507133538 53 203 17.4 27.8 0.00 0.00 0.00 48 1009.1
20260507133028 53 203 18.2 29.5 0.00 0.00 0.00 48 1009.2
20260507132517 53 225 20.9 29.5 0.00 0.00 0.00 48 1009.0
20260507132007 53 248 22.6 29.5 0.00 0.00 0.00 48 1008.6
20260507130947 54 225 17.4 23.5 0.00 0.00 0.00 48 1008.5
20260507125927 53 225 18.2 25.2 0.00 0.00 0.00 49 1008.6
20260507125417 53 225 16.5 23.5 0.00 0.00 0.00 49 1008.9
20260507124906 53 225 18.2 25.2 0.00 0.00 0.00 49 1009.6
20260507124357 53 225 15.6 25.2 0.00 0.00 0.00 49 1009.8
20260507123848 52 225 16.5 21.7 0.00 0.00 0.00 49 1009.7
20260507123336 52 203 13.9 20.0 0.00 0.00 0.00 49 1009.4
20260507122827 52 203 13.9 23.5 0.00 0.00 0.00 50 1009.3
20260507122316 52 203 13.9 26.1 0.00 0.00 0.00 50 1009.1
20260507121256 52 180 15.6 25.2 0.00 0.00 0.00 49 1008.2
20260507120745 52 203 15.6 23.5 0.00 0.00 0.00 49 1008.3
20260507120235 52 203 14.8 20.9 0.00 0.00 0.00 49 1008.6
20260507115725 52 203 15.6 20.9 0.00 0.00 0.00 49 1008.4
20260507114706 52 203 15.6 25.2 0.00 0.00 0.00 48 1008.1
20260507114156 53 203 17.4 26.1 0.00 0.00 0.00 48 1007.6
20260507112625 53 203 13.0 23.5 0.00 0.00 0.00 51 1007.3
20260507112115 53 225 13.0 23.5 0.00 0.00 0.00 51 1007.2
20260507111605 53 180 14.8 23.5 0.00 0.00 0.00 52 1006.6
20260507111057 53 203 16.5 21.7 0.00 0.00 0.00 52 1007.0
20260507110550 53 203 13.9 20.9 0.00 0.00 0.00 54 1007.1
20260507105525 54 180 13.0 20.9 0.00 0.00 0.00 53 1006.9
20260507105014 54 203 13.0 23.5 0.00 0.00 0.00 53 1006.6
20260507104510 54 203 16.5 23.5 0.00 0.00 0.00 52 1006.4
20260507103954 54 203 14.8 21.7 0.00 0.00 0.00 52 1007.0
20260507103444 55 203 14.8 26.9 0.00 0.00 0.00 51 1006.9
20260507102934 55 225 14.8 26.9 0.00 0.00 0.00 50 1006.6
20260507102423 55 203 17.4 26.1 0.00 0.00 0.00 49 1006.4
20260507101914 55 180 17.4 20.9 0.00 0.00 0.00 49 1006.9
20260507101403 56 203 14.8 23.5 0.00 0.00 0.00 50 1007.4
20260507100853 56 203 16.5 23.5 0.00 0.00 0.00 49 1007.1
20260507100344 56 225 10.4 23.5 0.00 0.00 0.00 50 1007.4
20260507095833 56 225 16.5 23.5 0.00 0.00 0.00 49 1007.0
20260507095323 56 203 16.5 23.5 0.00 0.00 0.00 49 1007.3
20260507094303 57 203 14.8 20.0 0.00 0.00 0.00 49 1007.3
20260507093753 57 203 9.6 21.7 0.00 0.00 0.00 49 1007.0
20260507093242 57 203 12.2 21.7 0.00 0.00 0.00 48 1006.7
20260507092732 58 225 15.6 20.9 0.00 0.00 0.00 47 1006.4
20260507092222 58 203 13.9 20.9 0.00 0.00 0.00 47 1006.7
20260507091712 58 225 14.8 20.0 0.00 0.00 0.00 47 1006.4
20260507090651 58 225 14.8 23.5 0.00 0.00 0.00 47 1006.0
20260507090141 58 203 16.5 21.7 0.00 0.00 0.00 46 1006.0
20260507085634 58 203 15.6 20.0 0.00 0.00 0.00 48 1006.1
20260507085121 58 248 13.0 18.2 0.00 0.00 0.00 48 1006.0
20260507084612 58 225 13.9 18.2 0.00 0.00 0.00 47 1005.7
20260507084101 58 203 13.0 17.4 0.00 0.00 0.00 47 1005.5
20260507083551 58 225 13.0 17.4 0.00 0.00 0.00 47 1005.5
20260507082531 59 203 13.0 20.0 0.00 0.00 0.00 47 1005.4
20260507082021 59 203 12.2 18.2 0.00 0.00 0.00 47 1005.5
20260507081511 59 203 13.0 20.9 0.00 0.00 0.00 48 1005.6
20260507081001 59 203 13.0 23.5 0.00 0.00 0.00 48 1006.0
20260507080450 59 203 13.9 23.5 0.00 0.00 0.00 50 1005.8
20260507075940 58 203 14.8 23.5 0.00 0.00 0.00 52 1006.1
20260507075431 58 203 14.8 18.2 0.00 0.00 0.00 52 1005.9
20260507074920 58 203 14.8 18.2 0.00 0.00 0.00 54 1006.2
20260507074410 57 203 11.3 20.9 0.00 0.00 0.00 55 1006.2
20260507073900 58 203 12.2 20.9 0.00 0.00 0.00 55 1006.4
20260507072329 58 203 11.3 18.2 0.00 0.00 0.00 61 1006.2
20260507071819 58 203 11.3 17.4 0.00 0.00 0.00 63 1006.2
20260507071309 58 203 10.4 19.1 0.00 0.00 0.00 63 1006.4
20260507070759 58 203 13.0 19.1 0.00 0.00 0.00 63 1006.2
20260507070249 58 203 12.2 19.1 0.00 0.00 0.00 64 1006.2
20260507064719 59 203 11.3 21.7 0.00 0.00 0.00 64 1006.2
20260507063658 59 158 14.8 21.7 0.00 0.00 0.00 63 1006.3
20260507063148 60 203 13.0 27.8 0.00 0.00 0.00 63 1006.6
20260507062638 60 203 18.2 27.8 0.00 0.00 0.00 62 1006.5
20260507062128 60 203 16.5 29.5 0.00 0.00 0.00 61 1006.6
20260507061618 61 203 21.7 29.5 0.00 0.00 0.00 60 1006.4
20260507060558 61 225 17.4 23.5 0.00 0.00 0.00 62 1006.5
20260507060056 61 203 15.6 21.7 0.00 0.00 0.00 63 1006.5
20260507055538 61 203 14.8 20.0 0.00 0.00 0.00 65 1006.5
20260507055027 61 225 14.8 17.4 0.00 0.00 0.00 66 1006.4
20260507054518 61 203 12.2 17.4 0.00 0.00 0.00 67 1006.2
20260507053457 61 203 12.2 19.1 0.00 0.00 0.00 68 1006.2
20260507052947 61 203 12.2 20.0 0.00 0.00 0.00 69 1006.1
20260507052437 61 203 11.3 20.0 0.00 0.00 0.00 69 1005.8
20260507051927 62 180 13.0 19.1 0.00 0.00 0.00 68 1006.2
20260507051418 62 180 13.0 19.1 0.00 0.00 0.00 69 1005.9
20260507050357 62 203 11.3 0.0 0.00 0.00 0.00 72 1005.6
20260507050147 62 203 13.0 0.0 0.00 0.00 0.00 72 1005.7
20260507045804 62 225 13.9 20.0 0.00 0.00 0.00 71 1005.6
20260507045253 62 180 13.0 19.1 0.00 0.00 0.00 69 1005.6
20260507044743 62 180 13.0 19.1 0.00 0.00 0.00 70 1005.6
20260507044233 63 203 13.0 23.5 0.00 0.00 0.00 72 1005.4
20260507043723 63 203 14.8 23.5 0.00 0.00 0.00 73 1005.3
20260507043214 63 225 14.8 19.1 0.00 0.00 0.00 74 1005.3
20260507042703 62 203 9.6 19.1 0.00 0.00 0.00 75 1005.3
20260507041642 63 203 9.6 13.9 0.00 0.00 0.00 76 1005.4
20260507035602 63 203 3.5 7.0 0.00 0.00 0.00 75 1005.6
20260507035052 63 203 5.2 7.0 0.00 0.00 0.00 75 1005.5
20260507034032 63 203 5.2 13.0 0.00 0.00 0.00 76 1005.3
20260507033522 63 203 7.8 14.8 0.00 0.00 0.00 76 1004.7
20260507033012 63 225 10.4 14.8 0.00 0.00 0.00 76 1004.7
20260507032501 63 203 10.4 14.8 0.00 0.00 0.00 76 1004.0
20260507031952 63 225 9.6 14.8 0.00 0.00 0.00 76 1004.4
20260507030931 63 203 7.0 13.9 0.00 0.00 0.00 76 1003.7
20260507030417 64 0.0 0.0 0.00 0.00 0.00 75